GW1931 Weather Reports


Display with metric or nautical units.
time (UTC)temp
F
wind
direction
speed
MPH
gust
MPH
rain 1hr
in
rain 24hr
in
rain mn
in
humidity
%
barometer
mb
20260904071632 78 110 0.0 0.0 0.00 0.00 0.00 99 1016.3
20260904064630 78 110 0.0 0.0 0.00 0.00 0.00 99 1016.5
20260904061626 78 111 0.0 0.0 0.00 0.00 0.00 99 1016.4
20260904054623 78 111 0.0 0.0 0.00 0.00 0.00 99 1016.3
20260904051620 78 126 0.0 0.0 0.00 0.00 0.00 99 1016.3
20260904044620 78 120 0.0 0.0 0.00 0.14 0.14 99 1016.2
20260904041617 78 140 0.0 0.0 0.00 0.14 0.14 99 1016.2
20260904034612 79 137 0.0 0.0 0.00 0.14 0.14 99 1016.2
20260904031611 79 133 1.0 1.0 0.00 0.14 0.14 99 1016.2
20260904024608 79 101 0.0 0.0 0.00 0.14 0.14 99 1016.0
20260904021605 79 136 0.0 0.0 0.00 0.14 0.14 99 1015.7
20260904014601 79 114 0.0 1.0 0.00 0.14 0.14 99 1015.3
20260904011600 79 131 1.0 3.0 0.00 0.14 0.14 98 1015.2
20260904004556 79 87 1.0 1.0 0.00 0.14 0.14 96 1015.0
20260904001551 80 122 0.0 2.0 0.00 0.14 0.14 95 1015.4
20260903234549 80 131 0.0 2.0 0.00 0.14 0.14 94 1015.6
20260903231544 80 131 4.0 6.0 0.00 0.14 0.14 94 1015.8
20260903224541 80 88 2.0 3.0 0.00 0.14 0.14 94 1015.7
20260903221537 79 114 0.0 1.0 0.00 0.14 0.14 98 1015.7
20260903214532 78 112 2.0 2.0 0.00 0.14 0.14 99 1016.0
20260903211527 77 133 0.0 1.0 0.00 0.14 0.14 99 1016.7
20260903204527 77 118 2.0 3.0 0.00 0.14 0.14 99 1016.8
20260903201527 76 122 1.0 3.0 0.00 0.14 0.14 99 1017.0
20260903194527 76 125 0.0 1.0 0.00 0.14 0.14 99 1016.9
20260903191524 77 112 2.0 2.0 0.00 0.14 0.14 99 1017.6
20260903184523 76 142 1.0 2.0 0.00 0.14 0.14 99 1017.9
20260903181523 75 317 2.0 5.0 0.19 0.14 0.14 95 1018.5
20260903174522 86 122 0.0 2.0 0.00 0.05 0.05 91 1017.7
20260903171522 87 141 0.0 1.0 0.00 0.05 0.05 85 1017.6
20260903164518 87 110 1.0 1.0 0.00 0.05 0.05 87 1018.0
20260903161514 86 158 0.0 2.0 0.00 0.05 0.05 89 1017.6
20260903154512 84 106 0.0 2.0 0.00 0.05 0.05 93 1018.0
20260903151507 83 126 0.0 1.0 0.00 0.05 0.05 97 1018.1
20260903144504 81 131 1.0 1.0 0.00 0.05 0.05 99 1018.2
20260903141502 80 120 0.0 1.0 0.00 0.05 0.05 99 1018.2
20260903134501 79 148 0.0 1.0 0.00 0.05 0.05 99 1017.8
20260903131457 79 125 0.0 1.0 0.00 0.05 0.05 99 1017.7
20260903124457 78 121 0.0 0.0 0.00 0.05 0.05 99 1017.4
20260903121456 78 130 0.0 0.0 0.00 0.05 0.05 99 1016.8
20260903114451 78 134 0.0 0.0 0.00 0.05 0.05 99 1016.8
20260903111450 78 128 0.0 0.0 0.00 0.05 0.05 99 1016.8
20260903104449 78 132 0.0 0.0 0.00 0.04 0.04 99 1016.5
20260903101443 78 123 0.0 0.0 0.00 0.04 0.04 99 1016.5
20260903094438 79 131 0.0 0.0 0.00 0.04 0.04 99 1016.3
20260903091434 79 133 0.0 0.0 0.00 0.04 0.04 99 1016.2
20260903084432 79 147 0.0 0.0 0.00 0.04 0.04 99 1016.2
20260903081431 79 98 0.0 0.0 0.00 0.04 0.04 99 1016.1
20260903074431 79 115 0.0 0.0 0.00 0.04 0.04 99 1016.0